| time (UTC) | temp F | wind direction | speed MPH | gust MPH | rain 1hr in | rain 24hr in | rain mn in | humidity % | barometer mb |
| 20260905232516 | 97 | 248 | 9.0 | 21.0 | 0.00 | 0.00 | 0.00 | 30 | 1022.3 |
| 20260905231516 | 97 | 248 | 9.0 | 15.0 | 0.00 | 0.00 | 0.00 | 30 | 1022.4 |
| 20260905230516 | 97 | 248 | 9.0 | 16.0 | 0.00 | 0.00 | 0.00 | 31 | 1022.4 |
| 20260905225516 | 97 | 270 | 8.0 | 14.0 | 0.00 | 0.00 | 0.00 | 30 | 1022.5 |
| 20260905224536 | 97 | 270 | 7.0 | 13.0 | 0.00 | 0.00 | 0.00 | 31 | 1022.5 |
| 20260905223516 | 97 | 270 | 7.0 | 12.0 | 0.00 | 0.00 | 0.00 | 30 | 1022.6 |
| 20260905222516 | 97 | 270 | 7.0 | 11.0 | 0.00 | 0.00 | 0.00 | 31 | 1022.9 |
| 20260905221516 | 97 | 270 | 7.0 | 12.0 | 0.00 | 0.00 | 0.00 | 31 | 1023.1 |
| 20260905220516 | 97 | 248 | 9.0 | 14.0 | 0.00 | 0.00 | 0.00 | 31 | 1023.1 |
| 20260905215516 | 98 | 180 | 7.0 | 15.0 | 0.00 | 0.00 | 0.00 | 30 | 1023.4 |
| 20260905214516 | 97 | 225 | 6.0 | 12.0 | 0.00 | 0.00 | 0.00 | 30 | 1023.3 |
| 20260905213516 | 97 | 248 | 8.0 | 16.0 | 0.00 | 0.00 | 0.00 | 30 | 1023.5 |
| 20260905212516 | 97 | 315 | 5.0 | 10.0 | 0.00 | 0.00 | 0.00 | 30 | 1023.6 |
| 20260905211516 | 97 | 225 | 8.0 | 14.0 | 0.00 | 0.00 | 0.00 | 30 | 1023.8 |
| 20260905210516 | 97 | 248 | 7.0 | 13.0 | 0.00 | 0.00 | 0.00 | 31 | 1023.9 |
| 20260905205516 | 96 | 225 | 5.0 | 11.0 | 0.00 | 0.00 | 0.00 | 31 | 1024.1 |
| 20260905204516 | 95 | 248 | 6.0 | 12.0 | 0.00 | 0.00 | 0.00 | 32 | 1024.2 |
| 20260905203516 | 96 | 270 | 5.0 | 11.0 | 0.00 | 0.00 | 0.00 | 32 | 1024.5 |
| 20260905202556 | 96 | 225 | 3.0 | 8.0 | 0.00 | 0.00 | 0.00 | 32 | 1024.7 |
| 20260905201516 | 96 | 270 | 9.0 | 14.0 | 0.00 | 0.00 | 0.00 | 32 | 1024.8 |
| 20260905200516 | 96 | 293 | 5.0 | 11.0 | 0.00 | 0.00 | 0.00 | 33 | 1025.1 |
| 20260905195516 | 96 | 248 | 6.0 | 11.0 | 0.00 | 0.00 | 0.00 | 33 | 1025.2 |
| 20260905194516 | 96 | 248 | 5.0 | 8.0 | 0.00 | 0.00 | 0.00 | 33 | 1025.3 |
| 20260905193516 | 95 | 248 | 3.0 | 7.0 | 0.00 | 0.00 | 0.00 | 33 | 1025.5 |
| 20260905192536 | 95 | 225 | 5.0 | 9.0 | 0.00 | 0.00 | 0.00 | 35 | 1025.7 |
| 20260905191516 | 94 | 270 | 3.0 | 6.0 | 0.00 | 0.00 | 0.00 | 35 | 1025.8 |
| 20260905190516 | 94 | 225 | 4.0 | 10.0 | 0.00 | 0.00 | 0.00 | 35 | 1025.9 |
| 20260905185516 | 94 | 225 | 6.0 | 10.0 | 0.00 | 0.00 | 0.00 | 35 | 1026.2 |
| 20260905184556 | 94 | 293 | 5.0 | 8.0 | 0.00 | 0.00 | 0.00 | 35 | 1026.3 |
| 20260905183516 | 93 | 203 | 3.0 | 8.0 | 0.00 | 0.00 | 0.00 | 36 | 1026.5 |
| 20260905182516 | 92 | 270 | 4.0 | 10.0 | 0.00 | 0.00 | 0.00 | 37 | 1026.4 |
| 20260905181516 | 92 | 270 | 5.0 | 11.0 | 0.00 | 0.00 | 0.00 | 37 | 1026.4 |
| 20260905180536 | 91 | 270 | 1.0 | 4.0 | 0.00 | 0.00 | 0.00 | 37 | 1026.5 |
| 20260905175536 | 91 | 293 | 4.0 | 7.0 | 0.00 | 0.00 | 0.00 | 39 | 1026.7 |
| 20260905174516 | 91 | 158 | 3.0 | 7.0 | 0.00 | 0.00 | 0.00 | 39 | 1026.7 |
| 20260905173516 | 90 | 225 | 3.0 | 8.0 | 0.00 | 0.00 | 0.00 | 41 | 1026.7 |
| 20260905172516 | 90 | 248 | 3.0 | 7.0 | 0.00 | 0.00 | 0.00 | 41 | 1026.9 |
| 20260905171536 | 90 | 225 | 4.0 | 8.0 | 0.00 | 0.00 | 0.00 | 42 | 1026.9 |
| 20260905170516 | 89 | 270 | 3.0 | 5.0 | 0.00 | 0.00 | 0.00 | 43 | 1026.9 |
| 20260905165516 | 89 | 248 | 3.0 | 7.0 | 0.00 | 0.00 | 0.00 | 45 | 1027.0 |
| 20260905164516 | 89 | 270 | 2.0 | 4.0 | 0.00 | 0.00 | 0.00 | 45 | 1027.4 |
| 20260905163516 | 88 | 203 | 2.0 | 4.0 | 0.00 | 0.00 | 0.00 | 47 | 1027.2 |
| 20260905162516 | 88 | 225 | 1.0 | 5.0 | 0.00 | 0.00 | 0.00 | 47 | 1027.2 |
| 20260905161516 | 87 | 315 | 1.0 | 4.0 | 0.00 | 0.00 | 0.00 | 47 | 1027.1 |
| 20260905160536 | 86 | 135 | 1.0 | 2.0 | 0.00 | 0.00 | 0.00 | 49 | 1027.1 |
| 20260905155515 | 85 | 113 | 1.0 | 2.0 | 0.00 | 0.00 | 0.00 | 51 | 1026.9 |
| 20260905154516 | 84 | 225 | 2.0 | 4.0 | 0.00 | 0.00 | 0.00 | 53 | 1027.0 |
| 20260905153515 | 83 | 203 | 1.0 | 4.0 | 0.00 | 0.00 | 0.00 | 56 | 1026.8 |
| 20260905152516 | 82 | 248 | 1.0 | 4.0 | 0.00 | 0.00 | 0.00 | 57 | 1026.8 |
| 20260905151515 | 81 | 158 | 1.0 | 3.0 | 0.00 | 0.00 | 0.00 | 60 | 1026.8 |
| 20260905150516 | 80 | 248 | 2.0 | 3.0 | 0.00 | 0.00 | 0.00 | 61 | 1026.8 |
| 20260905145536 | 79 | 248 | 1.0 | 2.0 | 0.00 | 0.00 | 0.00 | 63 | 1026.6 |
| 20260905144515 | 77 | 315 | 1.0 | 2.0 | 0.00 | 0.00 | 0.00 | 67 | 1026.9 |
| 20260905143516 | 76 | 0.0 | 0.0 | 0.00 | 0.00 | 0.00 | 70 | 1026.7 | |
| 20260905142516 | 75 | 0.0 | 0.0 | 0.00 | 0.00 | 0.00 | 73 | 1026.6 | |
| 20260905141516 | 74 | 0.0 | 0.0 | 0.00 | 0.00 | 0.00 | 74 | 1026.6 | |
| 20260905140516 | 73 | 0.0 | 0.0 | 0.00 | 0.00 | 0.00 | 75 | 1026.2 | |
| 20260905135515 | 72 | 0.0 | 0.0 | 0.00 | 0.00 | 0.00 | 75 | 1026.1 | |
| 20260905134516 | 72 | 158 | 2.0 | 3.0 | 0.00 | 0.00 | 0.00 | 74 | 1026.1 |
| 20260905133516 | 72 | 158 | 1.0 | 2.0 | 0.00 | 0.00 | 0.00 | 73 | 1025.9 |
| 20260905132516 | 72 | 0.0 | 1.0 | 0.00 | 0.00 | 0.00 | 74 | 1025.7 | |
| 20260905131516 | 71 | 68 | 3.0 | 4.0 | 0.00 | 0.00 | 0.00 | 73 | 1025.6 |
| 20260905130515 | 71 | 0.0 | 4.0 | 0.00 | 0.00 | 0.00 | 75 | 1025.5 | |
| 20260905125516 | 71 | 0.0 | 0.0 | 0.00 | 0.00 | 0.00 | 75 | 1025.5 | |
| 20260905124516 | 71 | 0.0 | 0.0 | 0.00 | 0.00 | 0.00 | 75 | 1025.4 | |
| 20260905123515 | 71 | 0.0 | 0.0 | 0.00 | 0.00 | 0.00 | 75 | 1025.3 | |
| 20260905122536 | 71 | 23 | 1.0 | 3.0 | 0.00 | 0.00 | 0.00 | 74 | 1025.3 |
| 20260905121515 | 72 | 0.0 | 0.0 | 0.00 | 0.00 | 0.00 | 73 | 1025.4 | |
| 20260905120515 | 72 | 0.0 | 0.0 | 0.00 | 0.00 | 0.00 | 73 | 1025.5 | |
| 20260905115535 | 72 | 0.0 | 0.0 | 0.00 | 0.00 | 0.00 | 73 | 1025.4 | |
| 20260905114516 | 72 | 23 | 2.0 | 4.0 | 0.00 | 0.00 | 0.00 | 74 | 1025.2 |
| 20260905113516 | 72 | 0 | 2.0 | 3.0 | 0.00 | 0.00 | 0.00 | 74 | 1025.2 |
| 20260905112535 | 72 | 23 | 1.0 | 2.0 | 0.00 | 0.00 | 0.00 | 74 | 1025.3 |
| 20260905111516 | 72 | 45 | 1.0 | 3.0 | 0.00 | 0.00 | 0.00 | 74 | 1025.3 |
| 20260905110516 | 72 | 23 | 1.0 | 2.0 | 0.00 | 0.00 | 0.00 | 75 | 1025.3 |
| 20260905105515 | 72 | 23 | 2.0 | 3.0 | 0.00 | 0.00 | 0.00 | 74 | 1025.2 |
| 20260905104515 | 72 | 0.0 | 0.0 | 0.00 | 0.00 | 0.00 | 74 | 1025.2 | |
| 20260905103536 | 72 | 0.0 | 0.0 | 0.00 | 0.00 | 0.00 | 73 | 1025.3 | |
| 20260905102516 | 73 | 0.0 | 0.0 | 0.00 | 0.00 | 0.00 | 72 | 1025.1 | |
| 20260905101556 | 73 | 0.0 | 0.0 | 0.00 | 0.00 | 0.00 | 72 | 1025.5 | |
| 20260905100515 | 73 | 0.0 | 0.0 | 0.00 | 0.00 | 0.00 | 71 | 1025.5 | |
| 20260905095516 | 73 | 0.0 | 0.0 | 0.00 | 0.00 | 0.00 | 71 | 1025.6 | |
| 20260905094536 | 74 | 0.0 | 0.0 | 0.00 | 0.00 | 0.00 | 70 | 1025.5 | |
| 20260905093656 | 74 | 0.0 | 0.0 | 0.00 | 0.00 | 0.00 | 69 | 1025.5 | |
| 20260905092515 | 74 | 0.0 | 0.0 | 0.00 | 0.00 | 0.00 | 69 | 1025.5 | |
| 20260905091536 | 74 | 0.0 | 1.0 | 0.00 | 0.00 | 0.00 | 69 | 1025.5 | |
| 20260905090517 | 74 | 45 | 2.0 | 3.0 | 0.00 | 0.00 | 0.00 | 69 | 1025.5 |
| 20260905085517 | 74 | 68 | 2.0 | 3.0 | 0.00 | 0.00 | 0.00 | 69 | 1025.5 |
| 20260905084518 | 75 | 68 | 1.0 | 2.0 | 0.00 | 0.00 | 0.00 | 67 | 1025.5 |
| 20260905083517 | 75 | 68 | 1.0 | 2.0 | 0.00 | 0.00 | 0.00 | 67 | 1025.6 |
| 20260905082517 | 76 | 0.0 | 0.0 | 0.00 | 0.00 | 0.00 | 65 | 1025.8 | |
| 20260905081517 | 76 | 0.0 | 0.0 | 0.00 | 0.00 | 0.00 | 64 | 1025.6 | |
| 20260905080517 | 77 | 0.0 | 0.0 | 0.00 | 0.00 | 0.00 | 63 | 1025.8 | |
| 20260905075537 | 77 | 68 | 1.0 | 3.0 | 0.00 | 0.00 | 0.00 | 63 | 1026.0 |
| 20260905074517 | 77 | 0.0 | 1.0 | 0.00 | 0.00 | 0.00 | 62 | 1025.8 | |
| 20260905073517 | 77 | 0.0 | 0.0 | 0.00 | 0.00 | 0.00 | 62 | 1025.7 | |
| 20260905072537 | 78 | 0.0 | 0.0 | 0.00 | 0.00 | 0.00 | 61 | 1025.8 | |
| 20260905071518 | 78 | 0.0 | 0.0 | 0.00 | 0.00 | 0.00 | 61 | 1025.6 | |
| 20260905070517 | 78 | 45 | 1.0 | 2.0 | 0.00 | 0.00 | 0.00 | 60 | 1025.6 |
| 20260905065517 | 79 | 0.0 | 1.0 | 0.00 | 0.00 | 0.00 | 60 | 1025.6 | |
| 20260905064517 | 79 | 0.0 | 0.0 | 0.00 | 0.00 | 0.00 | 59 | 1025.6 | |
| 20260905063517 | 79 | 0.0 | 0.0 | 0.00 | 0.00 | 0.00 | 59 | 1025.6 | |
| 20260905062517 | 79 | 0.0 | 1.0 | 0.00 | 0.00 | 0.00 | 58 | 1025.5 | |
| 20260905061517 | 79 | 68 | 1.0 | 3.0 | 0.00 | 0.00 | 0.00 | 58 | 1025.3 |
| 20260905060517 | 79 | 0 | 1.0 | 2.0 | 0.00 | 0.00 | 0.00 | 57 | 1025.3 |
| 20260905055517 | 80 | 315 | 2.0 | 3.0 | 0.00 | 0.00 | 0.00 | 56 | 1025.3 |
| 20260905054537 | 80 | 45 | 1.0 | 3.0 | 0.00 | 0.00 | 0.00 | 55 | 1025.3 |
| 20260905053517 | 81 | 0.0 | 0.0 | 0.00 | 0.00 | 0.00 | 54 | 1025.4 | |
| 20260905052517 | 81 | 45 | 2.0 | 3.0 | 0.00 | 0.00 | 0.00 | 53 | 1025.3 |
| 20260905051557 | 82 | 45 | 2.0 | 3.0 | 0.00 | 0.00 | 0.00 | 52 | 1025.1 |
| 20260905050517 | 83 | 0.0 | 0.0 | 0.00 | 0.00 | 0.00 | 50 | 1025.2 | |
| 20260905045517 | 84 | 0 | 2.0 | 3.0 | 0.00 | 0.00 | 0.00 | 48 | 1025.2 |
| 20260905044537 | 84 | 0.0 | 0.0 | 0.00 | 0.00 | 0.00 | 48 | 1025.0 | |
| 20260905043517 | 85 | 158 | 3.0 | 5.0 | 0.00 | 0.00 | 0.00 | 48 | 1025.1 |
| 20260905042517 | 85 | 135 | 5.0 | 8.0 | 0.00 | 0.00 | 0.00 | 47 | 1025.1 |
| 20260905041517 | 85 | 158 | 5.0 | 7.0 | 0.00 | 0.00 | 0.00 | 46 | 1024.9 |
| 20260905040517 | 85 | 158 | 6.0 | 9.0 | 0.00 | 0.00 | 0.00 | 44 | 1024.9 |
| 20260905035517 | 84 | 158 | 4.0 | 7.0 | 0.00 | 0.00 | 0.00 | 41 | 1024.7 |
| 20260905034517 | 83 | 158 | 3.0 | 5.0 | 0.00 | 0.00 | 0.00 | 41 | 1024.5 |
| 20260905033517 | 83 | 158 | 1.0 | 3.0 | 0.00 | 0.00 | 0.00 | 41 | 1024.3 |
| 20260905032517 | 83 | 0.0 | 1.0 | 0.00 | 0.00 | 0.00 | 41 | 1024.1 | |
| 20260905031517 | 84 | 135 | 1.0 | 2.0 | 0.00 | 0.00 | 0.00 | 40 | 1023.8 |
| 20260905030537 | 84 | 0.0 | 1.0 | 0.00 | 0.00 | 0.00 | 40 | 1023.6 | |
| 20260905025537 | 85 | 0.0 | 2.0 | 0.00 | 0.00 | 0.00 | 39 | 1023.5 | |
| 20260905024517 | 86 | 0.0 | 1.0 | 0.00 | 0.00 | 0.00 | 37 | 1023.4 | |
| 20260905023517 | 87 | 225 | 1.0 | 2.0 | 0.00 | 0.00 | 0.00 | 36 | 1023.2 |
| 20260905022537 | 88 | 225 | 1.0 | 3.0 | 0.00 | 0.00 | 0.00 | 34 | 1023.2 |
| 20260905021517 | 89 | 225 | 2.0 | 3.0 | 0.00 | 0.00 | 0.00 | 33 | 1023.0 |
| 20260905020517 | 89 | 248 | 2.0 | 5.0 | 0.00 | 0.00 | 0.00 | 33 | 1022.9 |
| 20260905015537 | 90 | 270 | 3.0 | 6.0 | 0.00 | 0.00 | 0.00 | 33 | 1022.8 |
| 20260905014517 | 90 | 270 | 3.0 | 6.0 | 0.00 | 0.00 | 0.00 | 32 | 1022.8 |
| 20260905013517 | 91 | 270 | 5.0 | 10.0 | 0.00 | 0.00 | 0.00 | 33 | 1022.7 |
| 20260905012517 | 91 | 270 | 4.0 | 12.0 | 0.00 | 0.00 | 0.00 | 32 | 1022.7 |
| 20260905011517 | 92 | 270 | 7.0 | 12.0 | 0.00 | 0.00 | 0.00 | 32 | 1022.9 |
| 20260905010557 | 92 | 248 | 6.0 | 9.0 | 0.00 | 0.00 | 0.00 | 32 | 1022.9 |
| 20260905005517 | 92 | 248 | 5.0 | 9.0 | 0.00 | 0.00 | 0.00 | 32 | 1022.8 |
| 20260905004517 | 93 | 270 | 5.0 | 10.0 | 0.00 | 0.00 | 0.00 | 31 | 1023.0 |
| 20260905003517 | 93 | 248 | 6.0 | 13.0 | 0.00 | 0.00 | 0.00 | 32 | 1022.9 |
| 20260905002517 | 93 | 248 | 7.0 | 14.0 | 0.00 | 0.00 | 0.00 | 31 | 1022.9 |
| 20260905001517 | 94 | 248 | 8.0 | 12.0 | 0.00 | 0.00 | 0.00 | 30 | 1022.8 |
| 20260905000517 | 94 | 248 | 9.0 | 14.0 | 0.00 | 0.00 | 0.00 | 29 | 1022.8 |
| 20260904235517 | 95 | 248 | 8.0 | 17.0 | 0.00 | 0.00 | 0.00 | 28 | 1022.8 |
| 20260904234517 | 95 | 270 | 8.0 | 14.0 | 0.00 | 0.00 | 0.00 | 28 | 1022.9 |
| 20260904233537 | 95 | 270 | 8.0 | 12.0 | 0.00 | 0.00 | 0.00 | 27 | 1023.0 |